STARLINK-35039, 65451

Orbit data source: Space-Track

STARLINK-35039, 65451 is a payload satellite owned by SpaceX/Seattle (US) in SSO that was launched on Wed, 03 Sep 2025 UTC via an FALCON 9 launch vehicle from the Air Force Western Test Range (AFWTR). Payload-class satellites include a variety of spacecraft equipped with specific instruments for various scientific and technological missions. These include communications satellites like Starlink; space stations such as the ISS; scientific satellites like the Hubble; Earth observation satellites from companies like Planet Labs, Umbra, and HawkEye 360; GPS; miniature CubeSats for education and research; and military/defense satellites.

Loading next visibility...
Identifier
65451, 2025-194T
Orbit
SSO
Country
Flag of USUS
Related business
Manufacturer
SpaceX/Seattle
Mission
Operational Commercial Communications
Bus & Motor
STARLINK V2MO, Unknown motor
Mass
575 kg wet, ~530 kg dry
Launch date (UTC)
2025-09-03 (10 months ago)
Launch vehicle
FALCON 9
Launch site
Air Force Western Test Range (AFWTR)
Object type
Payload
Rocket body
Debris
Shape & HBR
Box + 2 Pan, 17.7 m
Radar Cross Section
36.964 m², Large (>1 m²)

Expand to show TLE details & history
Last TLE update: 12 hours ago

TLE from 12 hours ago
0 STARLINK-35039
1 65451U 25194T   26171.33893310  .00003688  00000-0  25935-3 0  9991
2 65451  97.3452  24.4744 0002171  79.5620 280.5852 15.05662568 45090
Epoch: 2026-06-20T08:08Z
TLE epoch observation values (Epoch: 2026-06-20T08:08:03.819Z)
Latitude
-0.00006°
Longitude
-6.09649°
Altitude
552.269 km
Speed
7.586 km/s
True Right ascension
01h 37m 53s
True Declination
0° 00' 00"
Sunlit
Object was in daylight at epoch
Visualization orbit readout
Latitude
Unknown
Longitude
Unknown
Altitude
Unknown
Speed
Unknown
Apparent Right ascension
Unknown
Apparent Declination
Unknown
Sunlit
N/A
Visualization observer readout
Local Sidereal Time
07:12:09
Azimuth
Unknown
Elevation
Unknown
Doppler factor
Unknown
Orbital elements
Apogee altitude
547.958 km
Perigee altitude
544.952 km
Semi-major axis
6,924.592 km
Eccentricity
0.00022
Inclination
97.3452°
RAAN
24.4744°
Arg. of periapsis
79.562°
True anomaly
280.56074°
Mean anomaly
280.5852°
Eccentric anomaly
280.57297°
Mean motion
3.76662 °/min
Orbital period
95.58 mins
BSTAR
0.00025935
Loading maneuver chart data...
Computing Atmospheric mass density...
Loading historical data...
Loading historical data...
Loading historical data...
Loading historical data...
Loading historical data...
Loading historical data...
Loading historical data...

Documentation

Showing up to 5 results
|